Theta_e
336 335 336 336 336 333 332 334 333 333 328 323 325 328 329 328 328 330 331 331 329 328 329 328 328 330 331 331 331 330 330 330 330 330 329 330 326 319 316 312 309 310 310 312 312 313 314 315 315 316 317 318 319 319 319 319 319 319 319 318 318 317 316 315 313 313 313 314 316 317 317 318 318 319 319 319 319 320 321 320 319 317 317 316 316
336 334 334 333 334 333 332 333 333 332 329 325 323 324 328 328 325 328 328 330 329 328 329 329 330 330 330 330 330 330 331 330 330 330 329 330 325 317 315 312 311 312 314 316 316 317 317 318 318 319 320 321 320 320 320 320 320 321 321 320 320 319 318 316 314 313 313 315 315 317 317 318 319 319 319 319 320 320 320 321 321 319 319 317 316
335 334 334 333 333 333 332 332 333 332 329 328 326 323 325 325 325 328 328 329 330 330 330 330 330 330 330 330 330 331 331 330 331 330 330 330 326 322 317 312 312 314 316 319 320 321 322 322 322 322 322 321 321 322 321 321 321 322 322 321 321 320 319 317 315 313 313 314 315 316 318 319 320 320 320 320 320 321 321 321 321 321 320 319 317
334 335 336 335 333 332 332 331 332 332 329 328 329 327 323 321 325 328 328 329 330 330 331 330 330 330 331 330 330 331 330 329 330 330 330 329 328 327 322 316 315 316 317 320 322 325 327 326 325 325 325 324 324 324 323 323 323 322 322 322 321 321 320 318 315 314 314 315 317 319 320 321 321 321 321 321 322 322 321 321 321 321 321 320 319
334 334 335 333 331 331 331 331 331 331 330 328 328 328 325 322 324 328 329 329 330 330 331 331 330 330 330 329 329 330 330 329 330 330 329 328 328 328 326 324 323 319 317 320 324 328 329 329 328 328 328 327 327 327 325 324 324 323 323 322 321 321 320 318 315 314 315 318 320 321 322 322 322 322 322 322 322 323 322 321 321 321 321 321 319
336 334 333 332 331 331 331 332 331 330 330 329 328 328 328 325 323 326 330 330 329 330 330 331 331 329 330 329 329 330 330 330 330 329 329 328 327 327 327 328 328 325 321 322 326 328 328 329 329 329 329 329 328 328 326 324 324 323 323 323 322 322 320 317 315 316 318 321 322 323 323 323 322 322 322 322 323 323 322 321 321 321 321 321 321
337 334 332 333 334 332 330 331 331 330 329 329 329 328 329 328 324 324 328 330 329 329 330 331 331 330 329 329 330 329 330 331 330 330 329 326 326 325 326 327 329 329 326 326 328 327 327 328 328 328 328 328 328 328 328 326 325 324 323 324 323 322 321 319 318 319 321 322 323 323 323 323 322 321 320 321 322 322 321 321 321 321 321 321 321
335 334 332 332 334 333 330 330 331 331 329 329 328 327 329 330 328 323 326 330 330 329 330 330 330 330 329 329 330 329 330 331 330 331 329 326 325 323 323 325 327 329 328 329 329 326 326 327 327 327 327 327 328 328 328 328 327 326 324 324 324 323 322 321 321 321 322 323 323 323 323 322 322 320 319 319 321 321 321 321 321 321 321 321 321
332 332 331 331 332 332 330 330 331 331 330 330 329 328 328 329 330 326 326 331 332 330 330 330 330 330 329 329 329 330 330 330 331 332 329 327 326 324 324 326 325 327 328 330 330 328 326 326 326 325 325 326 327 327 328 328 328 327 327 326 325 324 324 323 322 322 322 322 323 323 324 323 322 321 319 318 319 320 321 321 321 321 321 322 322
330 330 330 330 331 332 332 330 330 330 331 331 329 329 328 327 329 328 327 330 333 332 330 330 329 329 329 330 329 330 331 331 331 332 330 328 326 325 327 328 326 328 329 330 330 328 327 326 323 322 322 323 325 327 327 328 328 328 328 327 327 326 325 325 324 323 322 323 323 324 324 323 322 322 320 318 318 320 321 321 322 322 322 322 322
330 330 329 329 330 331 331 330 330 330 330 331 331 330 326 324 328 329 327 328 332 333 330 329 330 329 329 330 329 329 331 332 332 332 331 329 326 325 327 329 329 329 329 328 328 327 326 325 324 325 323 319 323 326 327 327 328 328 328 328 327 327 326 326 325 324 323 324 324 324 324 324 323 322 322 319 318 320 321 321 322 321 322 322 322
331 331 330 330 330 330 330 330 331 330 330 330 331 330 327 325 327 329 328 328 332 332 329 328 329 329 329 330 329 330 331 331 331 332 331 329 326 324 326 329 330 329 328 327 326 324 323 322 323 326 324 320 322 325 326 326 327 328 328 328 328 328 327 326 326 326 325 324 324 324 324 324 324 323 322 320 318 319 321 321 321 320 321 321 320
330 330 331 331 331 331 331 331 331 331 330 330 331 331 329 327 327 328 329 329 331 330 328 328 328 329 330 330 330 329 330 330 330 332 331 329 328 326 328 330 330 329 328 326 325 322 321 320 320 323 324 323 322 323 324 324 326 327 327 327 328 327 327 327 327 326 326 325 323 322 323 324 324 323 322 320 317 319 320 319 320 319 319 317 314
329 329 330 330 331 332 332 332 332 332 331 331 331 331 329 327 327 329 329 329 330 329 328 328 328 329 329 330 330 329 329 330 330 332 331 330 329 328 328 329 329 329 327 326 324 322 321 320 321 321 322 324 325 324 324 325 324 323 324 326 326 326 326 326 327 326 325 325 321 316 317 320 321 321 320 318 316 316 316 315 318 318 315 311 306
331 331 330 330 331 332 332 331 332 332 332 331 331 331 330 327 325 327 329 329 330 330 329 328 328 329 328 329 330 329 330 330 330 331 330 329 329 328 328 327 328 329 327 325 325 325 325 322 321 321 321 324 326 325 325 326 322 318 320 323 324 325 326 326 326 326 325 325 319 310 308 311 313 316 317 314 313 312 310 310 313 314 310 305 303
332 332 331 330 330 331 332 332 332 332 332 331 331 332 330 328 325 325 328 329 329 330 329 329 327 327 329 329 329 329 330 329 330 331 330 329 328 328 328 327 328 329 327 326 327 328 326 322 320 321 321 322 325 325 325 323 317 314 316 320 323 324 326 326 326 326 325 322 315 307 305 305 307 309 310 310 310 308 305 305 306 306 304 302 301
333 332 332 331 331 330 330 331 332 332 332 331 332 332 331 329 327 326 328 329 329 329 329 329 328 327 327 329 329 329 329 329 330 330 330 329 328 328 328 327 328 329 327 327 328 328 326 322 320 321 321 321 323 324 323 320 316 315 315 318 323 325 326 326 325 325 323 315 308 305 305 305 305 305 305 307 306 304 302 302 302 301 301 301 301
331 332 331 331 331 330 330 331 332 332 332 331 331 331 331 330 328 329 329 329 329 329 328 328 328 328 327 328 329 329 329 330 330 330 330 330 329 329 329 328 329 329 328 328 328 328 327 324 322 322 322 321 320 320 321 318 316 318 318 318 321 324 325 325 325 323 316 307 305 305 305 305 303 303 304 304 303 301 301 301 301 301 300 300 301
331 331 332 331 330 330 331 331 332 331 331 330 330 331 331 330 329 330 330 329 328 328 328 328 328 329 328 327 328 328 329 330 330 330 330 329 329 329 329 328 328 328 328 328 328 329 327 323 323 323 320 319 319 319 319 315 311 316 318 317 320 323 324 324 322 317 308 304 306 305 304 303 302 302 302 302 302 301 301 300 300 300 300 300 300
331 331 332 331 331 330 331 331 331 330 328 327 329 330 330 330 330 330 329 327 326 326 327 329 329 329 328 328 329 329 328 329 329 329 329 329 329 328 328 328 328 327 328 328 328 329 325 322 324 324 320 319 320 320 320 313 306 310 311 311 316 319 318 316 313 308 304 305 305 304 303 302 302 302 302 301 301 301 301 301 301 301 301 301 301
331 331 332 332 331 330 330 330 330 329 327 327 329 330 331 331 330 329 328 326 326 326 325 327 329 328 328 329 329 330 329 327 328 329 329 329 329 328 328 329 328 327 328 328 329 328 325 322 324 325 322 321 320 319 320 316 309 307 306 306 309 310 309 307 306 305 305 305 304 303 303 302 302 302 301 301 301 301 301 301 301 302 302 302 302
332 331 332 332 332 331 330 330 329 327 327 328 330 330 330 330 330 329 327 326 326 326 324 326 328 328 329 329 329 330 329 328 329 329 328 328 328 329 329 328 328 327 327 328 328 329 327 323 324 325 323 322 320 318 318 317 312 308 306 306 306 305 305 305 305 306 305 304 303 302 302 302 302 301 301 301 301 302 302 302 302 302 302 303 303
332 331 332 332 332 331 330 330 330 327 327 329 330 329 328 328 328 328 327 326 326 326 326 326 328 329 329 330 329 329 328 329 330 329 329 329 328 329 329 328 328 327 327 328 328 329 328 325 324 324 324 323 322 320 317 314 310 308 306 306 306 306 306 306 306 306 304 303 302 302 302 302 301 301 301 302 302 302 302 302 302 302 303 304 305
332 331 331 332 332 331 330 330 329 328 328 328 329 328 327 327 328 327 325 324 325 326 327 327 328 328 329 329 329 328 328 328 329 329 329 329 328 328 328 328 328 327 328 329 329 328 328 327 325 325 324 323 322 320 315 309 307 307 306 306 306 306 306 306 305 304 303 302 302 302 302 302 302 301 302 302 302 302 302 302 302 303 304 305 307
332 331 331 332 332 331 331 330 329 328 328 328 328 327 327 328 327 325 324 324 325 327 327 327 328 329 328 328 328 327 328 328 328 328 327 327 328 328 328 329 328 328 328 329 328 327 327 327 326 325 324 322 322 318 312 311 309 306 306 306 305 306 305 305 304 303 302 302 302 302 302 302 302 302 302 302 302 302 302 302 302 303 305 307 309
331 332 331 331 332 331 331 330 329 328 328 327 328 327 327 327 327 325 324 324 325 327 327 328 328 328 329 328 328 328 328 328 327 327 327 327 327 328 328 328 327 327 328 328 328 327 327 327 325 325 323 321 322 317 311 313 310 305 306 306 305 306 305 304 304 302 302 302 302 302 302 302 302 302 302 302 302 302 302 302 303 305 308 311 312
331 331 331 331 331 330 330 330 329 329 328 327 327 328 328 327 327 326 325 323 324 325 326 327 327 327 329 330 329 328 327 328 327 328 327 327 327 327 328 328 327 327 327 327 327 326 326 325 324 324 322 322 322 316 310 312 309 305 307 306 306 306 305 304 303 302 302 302 302 302 303 303 303 303 303 302 302 302 302 303 304 308 311 313 313
331 331 332 332 331 330 330 330 331 330 328 328 328 327 327 327 327 327 326 324 323 323 325 326 326 326 329 330 328 328 327 326 328 329 328 327 327 328 328 328 327 328 328 327 327 326 325 325 324 323 323 322 320 313 308 309 308 306 306 306 307 306 305 305 303 302 302 302 303 303 303 303 303 303 303 303 303 303 304 305 308 311 313 313 313
331 331 331 332 331 330 330 331 331 330 328 327 327 327 327 326 326 326 326 325 325 326 327 327 325 325 327 328 328 328 328 328 329 329 327 326 327 328 328 328 328 328 328 327 327 326 325 325 324 324 323 321 318 311 307 309 308 307 306 307 307 306 305 304 303 302 302 302 304 304 304 304 303 303 303 303 304 305 307 310 311 312 313 313 313
332 331 331 331 330 330 330 330 331 330 328 327 327 327 327 326 326 326 326 327 327 328 328 326 324 325 326 327 328 329 329 330 330 329 327 326 327 328 328 328 328 327 327 326 326 326 326 325 324 323 323 322 317 310 308 310 309 306 307 307 307 306 304 304 303 302 303 303 304 304 304 304 303 304 303 304 305 308 310 312 312 313 313 313 313
332 331 330 330 330 330 330 330 331 330 328 327 326 327 327 326 326 326 327 328 329 328 327 326 325 325 327 328 330 330 329 329 329 328 327 327 327 326 326 328 328 327 327 327 326 325 326 326 324 323 323 321 319 312 308 311 309 306 307 308 307 306 304 303 302 302 303 304 305 305 304 304 304 304 304 305 307 310 311 312 312 313 313 313 313
331 330 329 330 329 329 329 329 331 330 329 327 326 327 327 326 326 326 326 329 329 329 328 327 326 327 328 330 330 329 329 329 326 325 326 327 327 326 324 327 328 327 327 327 325 325 326 326 325 323 323 321 319 315 311 310 309 307 306 307 308 306 304 303 302 302 303 304 305 306 305 305 304 304 305 307 309 311 312 312 312 313 313 313 312
331 330 329 329 329 329 329 329 330 330 328 328 327 326 325 325 326 327 327 329 329 329 329 328 328 329 330 330 329 328 329 329 326 324 326 327 327 326 324 325 328 328 328 326 325 325 325 325 325 323 323 321 319 317 314 312 309 307 307 307 308 307 304 303 303 302 303 304 305 306 306 306 306 305 307 309 311 312 312 312 312 312 312 312 312
330 330 329 329 329 329 329 329 330 330 329 329 327 325 324 325 326 327 328 329 329 329 328 328 328 329 329 330 330 329 329 329 328 328 329 327 327 327 325 324 327 328 328 327 326 325 324 323 324 324 323 321 317 317 317 314 310 307 307 307 307 307 305 304 305 304 303 303 304 305 306 307 307 307 307 309 311 312 312 312 312 312 312 312 312
330 330 329 329 329 329 329 329 328 329 330 329 327 325 325 326 327 328 329 329 329 329 328 328 328 328 329 330 330 330 329 328 329 329 328 327 327 326 324 325 327 328 329 328 327 326 324 323 323 324 323 320 317 317 318 317 313 309 308 308 307 308 306 305 307 307 304 303 304 304 305 306 307 308 308 308 309 311 312 312 312 312 312 312 312
329 329 329 329 328 329 329 329 328 329 330 329 327 326 326 327 328 328 328 328 328 328 328 328 329 329 329 329 330 330 329 328 329 329 328 326 326 326 326 326 328 328 328 327 326 325 324 323 322 322 321 319 317 318 317 317 315 312 311 311 309 308 307 306 307 308 307 305 305 305 305 305 306 307 307 308 308 309 310 311 312 312 312 312 312
328 329 329 328 328 328 328 328 327 328 330 328 326 327 327 327 328 327 327 328 327 328 328 328 328 329 330 329 329 330 330 329 329 329 329 328 327 327 327 327 327 328 327 325 325 324 324 323 320 319 319 317 316 317 317 317 316 313 312 313 311 309 309 308 307 308 308 307 307 306 306 306 306 306 307 307 308 308 309 310 311 311 311 312 312
327 329 329 328 328 328 327 327 326 328 330 329 327 328 328 327 327 327 326 326 326 327 328 328 328 329 330 329 328 329 330 329 329 330 329 329 328 327 327 327 327 327 327 325 324 324 324 323 319 318 318 317 316 317 316 315 315 314 313 313 312 311 311 310 309 309 308 308 308 308 308 308 308 308 307 308 308 308 309 309 310 310 310 310 311
327 328 328 328 327 327 327 328 328 329 330 330 329 328 327 327 326 325 325 325 325 326 327 327 327 327 328 329 328 329 330 329 329 330 329 329 329 328 328 328 327 326 326 325 324 324 324 322 320 319 318 316 316 316 315 314 315 315 314 313 313 312 311 310 310 310 309 309 309 309 309 309 309 309 309 310 310 310 310 311 311 311 311 311 311
327 328 328 327 327 327 328 327 325 326 327 329 330 328 326 325 324 323 323 324 324 325 326 327 326 326 327 327 328 329 330 329 329 329 329 329 329 329 329 328 327 326 326 325 324 323 322 322 321 320 318 317 316 316 315 314 315 315 314 313 313 313 311 310 309 310 310 309 309 310 310 310 311 311 311 311 312 312 312 312 312 312 312 312 312
327 327 327 327 327 327 328 326 323 324 326 329 329 327 325 324 322 321 322 323 325 326 326 326 326 326 326 326 327 328 328 328 328 327 328 328 328 329 329 327 327 326 326 325 324 322 321 322 321 320 319 318 317 317 316 314 314 314 315 314 314 313 312 312 310 310 311 311 310 311 311 312 312 312 312 312 312 312 312 312 312 312 312 312 313
326 326 325 326 326 327 328 327 325 326 327 328 328 326 325 324 322 321 320 321 325 326 326 326 326 325 325 324 325 326 327 327 326 326 326 326 327 327 327 326 325 325 325 326 324 322 322 322 322 321 320 319 317 317 317 315 313 314 315 315 314 313 313 314 314 313 311 311 312 312 312 312 312 312 312 312 312 312 313 313 312 313 313 313 313
325 326 325 324 325 326 327 327 327 327 327 327 327 326 325 324 323 323 322 320 322 324 324 325 325 325 324 323 323 324 325 325 325 325 324 324 325 325 325 326 325 324 324 326 325 323 322 322 323 322 320 319 319 318 317 317 317 317 317 316 315 313 313 315 315 315 312 311 311 312 313 313 312 313 314 314 314 316 315 314 313 314 314 315 315
325 326 325 323 323 325 326 326 326 327 327 326 326 326 326 325 324 324 324 323 322 321 321 322 323 323 323 323 323 324 324 325 325 325 324 323 324 325 325 326 325 324 325 325 325 325 323 321 322 323 321 320 319 319 318 318 319 319 317 316 315 314 314 314 314 315 315 312 311 313 314 315 313 313 315 316 318 318 316 315 315 315 316 316 316
324 325 325 325 325 325 325 325 325 326 326 326 327 327 327 326 324 323 325 326 325 323 322 322 323 323 323 323 323 324 324 324 324 324 323 323 324 324 325 326 326 326 326 325 325 325 325 323 323 323 323 322 320 320 320 320 321 320 318 316 315 314 315 315 314 316 315 313 312 313 315 316 316 316 317 319 319 318 316 316 316 316 316 316 316
322 324 324 325 325 325 325 325 325 325 325 325 326 327 326 326 325 324 324 326 326 325 325 324 324 324 323 323 323 324 324 324 324 324 323 323 324 324 325 325 325 325 325 325 325 325 325 325 325 324 324 323 322 321 322 323 322 321 318 316 316 315 315 315 315 315 314 313 312 313 316 319 319 318 319 319 319 317 316 316 316 316 315 314 312
318 320 321 322 323 324 324 325 325 325 325 325 326 326 326 325 325 324 323 323 325 325 326 326 326 325 325 325 325 324 324 323 323 323 324 323 323 324 324 323 323 324 324 324 324 324 324 325 325 324 323 323 322 322 323 323 323 322 320 316 315 315 314 313 313 312 312 312 311 312 316 320 319 318 318 317 316 316 315 314 313 312 311 309 307
312 315 317 318 319 321 322 323 324 324 324 324 325 325 325 325 324 324 323 323 322 323 325 327 327 327 327 327 327 326 324 323 323 323 323 323 323 323 323 323 322 322 322 322 323 323 324 324 324 322 322 321 321 321 323 323 323 322 319 315 313 312 312 313 314 313 312 312 312 313 316 318 318 317 315 314 313 313 311 309 308 307 305 303 301
309 310 311 313 315 316 318 319 321 322 322 323 324 325 325 325 324 324 324 323 323 322 324 325 326 326 326 326 326 327 325 324 323 324 324 323 324 324 323 323 323 323 323 323 323 323 324 324 324 323 322 320 319 320 322 323 322 320 317 315 314 314 315 317 318 317 316 314 314 315 314 314 314 313 312 310 310 308 307 307 307 304 300 298 298
307 307 308 309 310 311 312 314 316 318 319 321 323 324 324 324 324 323 323 324 323 323 323 324 324 324 324 323 324 325 324 323 323 324 324 324 324 324 324 324 323 323 323 322 322 322 321 321 321 321 321 320 319 320 320 320 318 315 314 316 316 316 318 319 318 317 315 314 314 312 310 310 310 309 309 307 306 305 306 307 306 302 299 297 297
305 306 307 307 307 308 309 310 312 313 315 318 320 322 323 324 323 323 323 323 323 323 323 323 323 323 323 323 323 323 323 322 322 323 323 323 323 324 323 323 321 320 320 319 318 318 318 318 318 317 317 318 318 318 316 315 314 314 315 317 316 316 317 318 317 314 312 311 311 309 307 307 308 307 305 303 303 305 307 307 306 302 299 298 298
Wind_Speed
11 11 11 12 10 10 9 7 7 8 10 11 12 11 12 14 13 12 12 11 10 9 7 7 7 7 7 6 6 5 5 5 4 4 4 3 2 3 4 6 7 8 9 8 8 8 7 7 7 7 7 7 7 6 6 6 6 6 7 7 8 8 8 9 9 10 11 12 12 13 13 13 14 14 15 15 15 15 16 15 15 15 15 16 17
14 12 12 12 11 10 10 9 8 8 9 10 12 13 11 13 15 15 13 11 10 9 8 7 7 7 7 6 5 4 5 4 4 4 4 3 2 2 4 6 8 9 10 10 9 8 7 7 6 6 6 6 6 5 5 5 5 6 6 7 7 7 8 8 9 10 11 11 12 12 13 13 13 13 14 14 15 15 16 15 15 15 15 15 16
13 11 10 11 11 10 10 9 8 8 9 10 11 13 13 14 16 16 14 12 11 11 10 8 8 7 7 6 4 4 4 4 5 5 4 3 2 3 4 7 8 9 11 11 9 8 7 6 6 6 6 5 5 4 4 4 4 5 6 6 6 7 7 8 8 9 10 11 12 12 12 12 13 13 13 13 14 14 15 15 15 15 15 15 15
13 10 9 11 11 11 11 10 9 8 9 10 10 11 15 17 17 16 15 13 12 13 11 10 9 8 7 6 4 4 3 3 4 5 6 4 4 4 4 5 5 7 11 12 9 7 6 5 6 5 5 4 5 5 5 4 5 5 5 5 6 6 6 7 8 9 10 11 12 12 12 12 12 12 12 12 13 13 13 13 13 14 14 14 15
12 11 11 12 12 12 12 11 11 9 9 11 12 12 14 17 17 15 16 16 15 14 12 11 9 8 8 6 3 3 2 2 3 5 7 6 6 6 5 5 4 5 9 10 8 6 5 5 5 4 4 4 4 4 5 5 5 6 5 5 6 6 6 6 8 9 10 11 11 11 11 10 10 10 11 11 11 11 12 12 12 13 13 14 15
11 12 12 12 13 13 13 12 13 12 10 11 13 13 13 16 18 17 16 17 17 17 14 12 10 8 7 6 3 4 3 3 4 5 6 7 8 8 7 6 5 5 7 7 6 6 5 5 5 4 4 3 3 3 3 5 6 6 6 6 6 5 5 7 8 8 9 10 10 9 9 9 10 10 9 9 9 9 11 11 12 13 14 15 15
11 13 14 13 12 13 14 14 14 13 12 12 13 14 14 15 18 19 18 17 18 18 16 13 12 10 8 6 5 5 5 4 5 5 6 7 7 9 9 8 7 7 6 6 6 6 6 5 4 4 4 3 3 3 3 4 5 5 5 5 6 6 5 7 7 8 8 8 8 7 8 9 10 11 10 9 9 9 11 12 12 13 14 15 15
12 14 16 14 12 14 15 15 15 14 14 15 15 15 16 15 16 19 19 17 18 19 18 16 13 11 10 8 7 6 6 6 6 6 7 7 7 8 10 9 8 8 7 5 5 6 6 5 3 3 3 3 4 4 5 5 4 4 4 4 5 6 6 6 6 6 6 6 6 6 7 9 11 12 13 12 11 11 12 13 13 13 14 14 15
13 14 16 15 13 15 17 16 16 16 16 17 17 16 18 18 17 19 19 17 16 18 19 18 16 13 11 9 8 7 7 8 8 8 8 8 8 9 9 9 9 8 7 6 5 5 5 5 4 3 3 3 3 4 6 6 6 5 4 4 4 5 6 6 6 6 5 4 4 6 7 8 10 12 13 13 12 12 13 13 12 12 12 13 13
15 16 17 16 15 16 18 18 18 18 18 18 18 17 20 21 20 21 22 19 16 17 19 18 17 14 11 11 9 9 9 9 8 8 8 9 10 9 9 9 9 8 7 7 6 5 4 4 4 3 3 3 3 4 6 6 6 6 5 4 3 4 5 4 5 6 5 4 5 5 5 6 9 11 11 12 11 12 12 11 11 11 11 12 12
15 16 17 17 16 18 19 19 19 20 21 21 19 18 20 23 23 23 24 21 16 17 19 18 16 15 13 12 11 10 10 9 9 9 8 10 11 10 10 9 8 8 8 7 7 7 6 5 4 3 3 3 4 4 5 6 7 7 7 6 4 3 3 3 4 5 5 5 4 4 4 5 7 8 9 10 10 10 10 10 10 10 10 10 10
17 17 17 18 18 19 20 21 21 21 22 23 21 19 21 24 25 25 25 22 18 18 20 19 17 16 14 13 13 13 12 11 11 10 10 11 12 12 11 9 8 8 9 8 7 7 7 6 5 5 4 3 3 3 3 4 5 7 8 7 7 5 4 4 5 5 4 4 3 3 4 4 5 5 6 8 9 9 10 9 9 9 9 9 9
20 20 19 19 19 20 21 21 21 21 23 24 23 22 21 22 24 24 24 23 21 22 22 20 19 17 15 15 14 15 14 14 13 12 12 13 13 13 11 10 8 8 9 8 8 7 6 6 5 6 5 3 3 2 3 3 4 5 7 7 7 6 6 6 6 5 4 3 3 4 5 5 5 4 4 6 7 8 8 8 8 8 9 9 8
21 20 20 20 21 20 21 22 21 21 23 24 24 24 23 21 22 24 25 24 24 24 24 22 20 18 17 15 14 15 15 15 14 14 14 14 15 14 13 11 9 9 9 8 7 6 5 6 6 6 6 5 4 3 4 5 4 3 4 5 5 7 7 7 7 6 4 4 4 5 6 6 5 4 3 4 6 7 7 7 7 7 8 8 8
19 19 20 21 21 21 21 22 22 21 22 24 25 25 25 23 22 24 25 25 26 25 24 24 20 17 16 15 14 14 15 15 16 16 16 17 17 16 14 13 11 10 9 8 8 7 6 7 8 7 7 6 5 4 4 4 3 2 3 4 5 7 7 8 8 6 5 5 5 5 6 6 5 6 5 4 6 6 6 6 6 7 7 7 8
17 17 18 19 20 20 21 22 21 20 21 24 26 26 26 25 23 24 26 26 26 25 24 25 22 18 16 15 14 14 15 15 16 17 17 17 18 18 16 14 12 10 10 9 9 8 7 8 8 8 7 7 6 5 4 4 3 2 3 4 5 6 8 8 8 8 7 6 5 5 6 6 6 6 5 6 6 5 6 6 6 7 7 7 8
16 15 15 16 17 17 19 20 20 20 20 22 25 26 27 27 26 26 27 27 26 25 25 25 25 24 21 16 13 14 16 15 15 17 18 17 18 19 17 15 13 11 11 10 9 8 8 9 9 8 8 7 7 6 6 5 4 3 2 4 5 6 8 9 9 9 8 6 6 6 6 5 5 5 6 6 6 5 6 6 7 7 7 8 9
15 14 13 14 15 16 16 18 19 19 19 20 22 23 26 28 28 27 28 27 25 25 25 26 26 26 24 21 17 14 13 14 14 14 16 17 17 17 16 15 14 13 12 10 10 9 8 9 10 9 8 8 8 7 6 5 5 5 4 5 6 7 9 10 11 10 8 6 6 6 6 6 6 6 7 7 6 6 7 7 7 8 9 10 12
14 14 13 14 15 15 15 15 16 18 19 20 20 20 24 27 28 28 27 24 22 22 23 25 25 24 23 25 22 15 12 14 15 14 15 18 18 17 17 16 15 14 12 12 11 10 11 11 10 9 9 9 8 7 6 6 7 7 7 7 7 8 10 11 11 8 7 7 7 6 6 6 6 6 7 7 7 8 8 8 9 10 12 13 15
12 14 14 14 14 15 15 15 15 17 18 19 19 19 22 26 28 27 23 19 17 17 19 21 22 21 21 24 24 21 16 14 15 15 16 18 19 20 18 16 16 15 14 13 12 12 13 13 11 9 10 10 8 7 6 6 8 8 8 9 9 9 9 10 9 8 8 7 7 6 6 6 6 6 8 8 9 10 10 11 12 13 15 16 16
11 13 15 14 14 15 16 16 16 16 14 14 16 17 19 24 28 24 19 17 16 15 16 18 17 18 19 21 22 22 19 15 14 17 18 18 18 19 19 17 16 17 16 15 14 13 13 14 12 10 11 10 9 8 7 7 7 8 8 9 10 10 9 9 9 8 8 8 7 7 6 6 7 8 9 9 10 11 12 13 14 15 15 16 16
11 13 14 14 14 14 14 14 15 15 13 11 13 15 15 19 23 23 19 18 17 17 18 18 17 17 19 20 19 19 18 16 15 17 19 19 18 18 20 20 19 19 18 16 15 13 12 13 13 12 11 10 9 9 8 8 8 8 8 8 9 10 10 10 10 9 8 8 7 7 6 7 8 8 9 10 11 12 12 13 14 14 14 15 15
11 12 13 14 14 15 14 13 14 14 13 12 14 15 16 17 19 20 20 18 17 18 20 20 18 19 20 19 19 19 18 17 15 15 16 17 17 18 20 19 18 18 18 17 16 14 13 14 13 13 12 10 9 9 10 11 11 10 9 9 9 10 10 10 10 9 9 8 8 7 7 8 8 9 9 10 11 12 12 13 13 13 14 14 14
12 12 13 13 14 15 15 15 15 15 15 15 15 15 16 17 18 19 20 18 17 17 19 19 20 20 20 20 20 19 19 20 18 17 17 17 15 16 18 17 17 17 17 17 17 15 14 14 14 13 13 11 9 11 12 12 12 11 10 9 10 10 10 10 10 10 10 9 8 8 8 8 9 9 9 10 11 12 12 13 13 13 13 13 12
12 12 13 14 15 15 14 15 16 16 16 17 17 17 17 18 19 21 21 19 17 17 18 19 20 21 20 20 20 20 20 21 21 21 21 18 16 15 15 16 20 21 18 17 17 16 15 15 14 13 12 10 10 12 13 12 13 12 11 11 11 11 11 11 11 11 10 10 9 9 9 9 9 10 10 11 12 12 12 13 12 12 12 11 11
12 13 14 14 16 15 13 15 18 17 17 18 18 17 16 17 19 21 21 19 17 17 18 19 20 21 19 18 19 20 20 20 20 21 21 17 17 17 14 15 20 22 20 18 17 17 16 15 14 13 12 12 12 14 14 13 14 13 12 12 12 12 12 12 11 11 11 10 10 10 9 9 10 10 11 11 12 12 12 12 12 12 11 11 10
12 13 14 14 15 16 14 16 19 18 18 19 18 17 16 16 18 19 19 20 19 17 17 18 20 20 18 17 19 19 20 20 18 19 19 16 14 16 16 17 19 19 18 18 18 17 16 15 15 14 14 14 14 15 15 15 15 14 13 13 13 12 12 12 12 12 12 11 11 10 10 10 10 11 11 11 11 11 12 12 12 11 11 11 10
13 14 14 14 15 16 15 17 20 19 18 19 19 18 17 16 17 18 18 19 20 20 20 19 19 20 18 19 20 19 18 19 17 17 19 17 15 15 17 19 20 18 16 16 17 16 16 15 15 15 15 15 15 15 16 16 15 14 15 14 14 13 13 13 13 13 12 12 11 11 10 10 10 11 11 11 11 11 11 11 11 11 10 9 8
14 14 14 14 15 15 16 19 21 21 20 19 19 18 17 17 17 17 18 19 20 20 20 19 19 19 18 19 19 17 15 15 15 17 19 18 16 16 18 18 18 18 16 17 17 16 16 16 15 16 16 15 15 17 16 15 15 15 15 15 14 14 14 13 14 13 13 12 11 11 11 11 11 11 12 11 11 11 11 11 11 10 9 8 7
14 15 14 14 15 16 17 19 21 22 21 19 19 18 17 17 17 17 17 17 18 19 19 19 19 18 18 18 17 15 15 15 15 18 19 19 19 18 18 18 19 18 17 18 17 15 16 17 15 15 16 16 16 17 17 16 16 16 16 16 15 14 15 14 14 14 14 13 12 12 12 11 12 12 12 12 12 12 11 11 10 10 9 7 6
14 15 14 14 15 16 18 20 20 22 22 20 19 19 18 17 16 16 16 16 18 19 19 19 19 18 18 17 16 15 17 18 18 18 20 21 21 20 19 19 20 19 17 15 16 15 15 16 15 14 16 17 15 16 18 17 17 17 17 17 15 15 15 15 15 15 14 14 13 12 12 12 12 12 13 13 12 12 11 11 10 9 9 7 6
15 15 15 15 15 16 19 22 22 22 23 20 19 19 18 16 15 15 16 17 18 19 19 19 18 17 17 17 17 17 17 18 19 19 20 22 22 22 20 19 19 19 17 14 14 15 14 14 15 14 15 17 15 16 18 18 18 18 18 18 17 16 16 15 15 15 15 14 13 12 11 11 12 12 13 13 13 12 12 11 10 10 9 8 7
16 16 16 16 16 17 20 22 22 23 23 21 20 20 18 16 15 16 16 18 18 18 19 18 17 17 16 16 18 17 16 18 18 18 20 22 21 21 20 19 17 17 17 15 14 14 13 13 14 14 15 16 15 15 17 18 18 18 19 19 18 17 16 16 16 16 15 14 13 12 11 10 11 11 12 13 12 12 12 11 11 10 9 9 9
17 18 18 18 18 19 20 22 23 23 22 21 21 20 18 16 16 16 17 18 18 18 18 17 17 17 17 17 17 17 17 18 17 16 18 21 21 21 21 19 17 16 17 17 15 12 12 13 14 15 16 16 15 15 16 17 18 18 19 20 18 17 17 16 15 16 15 14 13 12 11 10 10 11 12 12 12 12 12 12 11 11 10 10 10
18 19 19 19 20 20 20 21 22 21 20 21 20 18 17 16 16 17 17 17 17 17 16 16 17 17 17 18 17 17 19 19 18 17 18 20 21 20 20 19 18 17 17 17 15 12 11 12 14 16 16 17 16 15 16 16 17 18 18 19 19 18 18 18 16 15 15 15 14 13 13 12 11 11 12 12 13 13 12 12 12 12 12 12 12
17 17 18 19 20 19 19 20 20 18 19 20 19 18 17 16 16 17 17 16 16 16 16 16 16 16 17 18 18 18 19 19 18 18 18 19 19 19 19 19 19 20 20 19 18 14 11 11 14 16 16 17 17 15 15 16 17 18 17 17 18 18 17 18 16 15 15 15 14 14 14 13 13 12 12 12 13 13 13 13 13 13 14 14 14
16 14 16 18 19 19 19 20 19 18 19 19 18 16 16 16 16 16 16 16 16 16 16 16 16 16 16 18 19 18 19 19 18 17 17 18 18 18 19 18 18 20 22 23 21 16 12 11 14 15 14 16 17 15 15 17 17 17 16 15 16 16 16 16 16 16 16 15 15 15 14 15 14 14 14 13 13 13 14 14 15 15 15 16 17
15 14 14 16 18 18 18 19 19 19 18 18 16 15 16 16 16 16 16 16 16 16 16 16 16 16 16 17 18 18 19 18 17 17 18 19 19 19 19 19 19 19 22 25 23 16 13 12 13 15 14 15 16 15 16 17 16 16 16 16 16 15 16 17 17 17 17 16 16 16 15 15 14 14 14 14 14 14 14 15 15 16 17 18 19
13 13 12 15 18 17 17 18 18 18 17 16 15 15 16 16 16 16 16 16 16 16 16 16 16 17 16 17 17 17 18 18 17 18 18 20 20 20 21 21 21 20 22 24 23 17 15 15 14 15 16 15 16 15 16 17 16 15 16 16 16 16 18 19 19 18 18 17 16 16 15 15 14 14 13 13 13 13 13 14 14 15 17 18 19
9 10 9 11 14 14 14 14 14 15 15 15 15 16 17 17 16 16 15 16 16 16 16 16 16 16 17 18 18 17 17 17 18 18 18 19 21 21 23 23 22 21 20 22 24 19 16 17 16 15 16 16 16 16 15 17 18 17 16 16 16 16 17 19 20 19 18 18 17 15 14 14 13 12 12 12 13 13 14 15 16 17 19 20 22
7 8 8 8 10 10 10 10 12 15 15 15 15 16 16 16 16 16 16 16 16 16 17 17 17 17 17 18 19 18 18 19 19 19 19 21 21 22 24 26 24 20 16 18 25 24 20 18 17 16 16 16 17 18 18 19 20 18 16 16 15 14 14 15 17 18 18 17 15 14 13 14 13 12 13 13 14 16 17 17 19 20 22 23 24
9 10 11 10 8 8 9 9 12 15 15 14 14 15 15 15 15 15 16 17 16 16 16 16 17 18 18 18 18 18 19 20 20 20 20 21 22 21 24 26 25 20 15 15 22 26 25 22 19 16 17 17 17 18 20 21 21 18 17 17 17 15 14 14 13 16 18 16 14 14 13 14 15 14 13 13 15 18 18 19 21 22 22 23 23
8 11 12 11 10 9 9 10 12 13 13 13 13 13 14 14 14 14 16 17 17 16 16 16 16 17 17 17 18 18 19 20 20 20 20 21 22 21 22 24 24 22 18 16 18 21 23 26 24 20 20 20 18 18 20 20 19 19 19 19 19 17 16 15 13 14 17 18 17 15 12 14 17 15 12 11 11 13 15 18 21 21 20 22 22
7 9 11 12 13 13 10 10 11 12 13 12 11 11 13 14 14 14 14 14 16 17 17 16 16 16 16 17 17 17 19 20 20 20 21 21 21 22 23 23 23 23 21 19 18 17 19 25 27 24 22 23 21 19 20 19 18 20 20 19 19 18 17 18 16 14 17 19 18 16 12 15 20 16 12 10 10 13 17 19 19 19 19 21 22
5 7 9 12 14 15 14 12 12 13 13 12 10 10 12 14 15 15 14 13 14 15 16 16 16 15 16 16 16 17 18 18 19 20 20 20 20 21 22 22 23 24 23 22 21 19 19 22 24 23 20 21 23 21 20 19 18 19 20 20 21 20 18 17 15 16 19 20 18 14 12 13 17 14 9 8 10 13 17 17 18 20 22 24 25
6 6 8 10 11 13 15 15 14 14 13 11 11 11 12 14 15 16 15 14 14 15 15 15 16 16 16 16 16 17 18 18 18 20 20 20 20 20 21 21 22 23 23 23 22 22 21 22 24 25 22 23 25 22 19 20 19 17 17 19 19 19 18 18 19 21 22 22 19 15 11 11 14 11 7 7 10 13 16 20 22 24 25 26 27
8 6 7 8 9 11 13 14 14 13 12 11 12 13 14 15 16 16 15 15 15 15 15 15 15 15 14 14 15 17 18 17 18 19 20 19 19 20 22 22 23 23 22 22 22 22 23 24 26 27 27 29 29 24 21 22 20 17 17 18 19 21 21 21 23 24 24 23 21 18 12 9 11 11 8 9 14 16 18 23 26 26 26 26 27
14 11 8 8 8 10 11 12 13 14 13 13 14 14 15 16 17 17 17 16 16 16 17 16 15 14 14 13 14 15 16 17 17 17 17 17 17 19 21 21 21 21 21 20 21 21 22 23 23 21 24 29 32 29 26 25 22 20 19 20 23 24 21 18 17 17 19 21 20 18 14 11 14 17 13 13 18 19 16 18 22 25 25 25 25
23 19 15 12 10 9 9 10 12 15 16 16 16 16 17 17 18 19 19 17 17 17 17 16 16 16 16 16 15 15 16 17 16 15 16 15 15 16 17 17 18 18 19 18 19 20 21 22 21 18 19 24 30 33 31 26 23 22 18 16 18 17 14 12 11 10 11 13 14 16 14 12 16 19 16 14 18 20 15 11 15 21 22 21 22
26 25 23 20 17 14 12 9 9 13 15 16 17 18 18 19 19 20 20 17 17 19 18 18 19 19 18 18 18 18 18 17 15 14 14 14 14 14 14 15 15 15 16 15 15 16 17 17 17 18 18 20 25 29 27 23 20 19 17 16 16 15 14 13 12 9 8 11 12 12 10 8 10 13 12 10 12 13 10 9 12 17 18 19 20
22 24 24 22 21 19 17 14 11 11 11 13 16 18 19 20 21 23 21 18 18 21 22 22 23 22 20 19 20 21 19 17 16 15 15 14 14 13 12 12 12 11 11 10 10 10 11 10 10 12 14 17 19 19 17 15 14 15 18 17 16 16 17 16 13 9 9 12 13 10 7 8 10 12 14 12 8 6 7 8 11 14 16 18 19
Wind_Direction
219 207 200 201 207 214 212 215 215 223 233 223 211 206 202 203 204 204 202 203 207 208 196 176 160 152 153 147 137 131 124 123 120 113 109 121 146 138 146 155 153 147 136 130 132 127 124 121 118 112 103 96 91 87 83 81 79 78 76 75 76 76 75 76 77 81 85 86 85 83 81 78 73 69 67 64 62 61 60 61 63 64 65 66 67
222 213 207 212 214 223 224 221 221 225 236 234 219 212 208 207 211 213 210 212 214 213 206 186 170 169 167 161 153 130 126 134 125 125 128 139 181 158 154 165 159 150 139 134 134 129 128 124 120 114 105 99 93 87 83 83 83 79 76 73 73 75 76 78 81 84 85 85 82 79 76 74 73 70 70 67 63 63 62 62 64 65 67 67 71
228 219 209 219 219 225 231 228 227 227 230 231 226 220 216 215 218 221 216 216 219 214 208 197 184 181 176 169 163 144 147 150 135 138 142 137 154 138 156 171 170 162 148 141 139 135 133 130 128 121 116 112 103 96 90 88 91 88 83 79 75 74 74 79 84 88 88 86 81 77 72 69 68 68 69 68 66 65 63 62 63 65 68 70 75
231 223 214 224 225 228 231 230 228 227 225 222 224 225 224 221 221 225 222 220 222 216 210 204 194 186 183 185 174 159 157 145 138 143 146 151 153 150 159 155 173 185 162 153 153 153 149 146 146 134 128 125 112 99 92 94 97 96 93 89 83 77 74 78 85 90 91 87 83 77 72 66 64 64 64 66 67 68 67 66 65 67 71 74 79
235 227 223 228 229 229 229 230 228 227 225 220 221 224 225 221 219 224 224 222 225 222 216 209 203 194 195 204 187 173 177 152 154 153 151 159 161 170 176 144 142 191 180 172 171 172 171 174 177 166 164 154 129 104 95 98 100 98 95 90 84 80 80 84 89 93 93 88 83 76 70 63 59 59 59 62 67 71 72 73 73 75 78 79 83
239 238 235 230 230 231 229 232 232 230 227 223 224 225 226 222 218 219 221 224 227 228 224 215 214 208 206 214 205 202 205 183 181 171 161 165 168 173 179 163 154 181 198 197 191 190 187 191 204 204 200 189 160 133 113 104 102 98 96 92 86 83 89 94 96 96 92 84 78 71 64 60 59 61 62 66 75 79 78 80 83 84 84 84 85
240 249 246 233 229 235 234 234 236 234 230 227 226 225 226 224 220 218 220 225 227 228 226 221 222 218 214 218 217 219 214 201 198 184 173 174 173 172 172 173 173 186 199 204 211 212 202 198 203 202 205 205 188 173 158 132 115 101 95 99 97 94 95 99 100 94 87 80 73 63 59 66 71 71 70 76 87 89 86 88 90 89 86 84 83
240 250 252 241 232 237 239 238 238 236 231 230 231 228 226 225 221 218 219 221 223 226 225 223 224 221 219 220 221 224 218 213 204 190 184 176 172 172 170 173 182 194 196 199 223 223 210 210 205 193 192 197 197 193 184 167 155 131 105 105 107 101 99 99 98 92 86 81 72 61 61 72 80 76 71 76 88 92 91 94 94 89 84 81 79
248 251 256 251 242 243 244 242 239 237 235 232 232 229 226 226 220 216 215 213 214 220 222 222 223 222 222 223 224 222 218 217 206 195 190 177 179 182 174 181 192 199 199 198 219 229 218 214 217 214 203 200 200 198 196 187 179 174 144 124 116 107 102 96 94 92 91 93 84 72 70 75 80 78 71 72 84 94 97 98 95 89 85 83 81
253 252 255 253 248 248 249 247 243 240 238 237 234 227 225 227 224 218 214 210 208 214 219 223 226 227 226 225 227 223 218 217 207 197 193 186 190 188 183 193 198 199 203 201 206 217 217 214 224 229 216 210 207 200 201 198 189 187 181 162 141 122 111 102 100 101 103 105 94 84 85 81 79 79 73 71 82 95 101 101 96 92 91 91 91
257 254 253 255 253 251 252 251 248 244 241 239 236 231 227 226 225 221 217 214 210 214 220 224 228 230 230 228 228 227 220 215 209 204 200 196 197 195 191 196 199 200 202 204 209 212 212 211 209 212 221 218 207 196 193 197 196 194 198 190 178 164 138 128 124 115 105 97 93 94 102 92 79 79 75 72 79 91 99 101 98 97 98 99 98
261 259 256 257 257 254 254 252 250 248 246 241 237 234 228 225 226 224 221 216 210 215 221 223 227 231 232 230 227 225 219 214 212 211 207 202 202 201 197 196 199 206 205 204 213 212 207 203 189 193 217 218 199 194 185 192 200 203 203 195 192 191 171 156 149 134 110 96 104 118 119 112 96 88 81 72 77 93 102 101 99 97 100 102 97
259 260 259 258 257 255 252 251 250 250 249 244 238 235 230 228 229 226 221 216 215 219 221 223 225 225 222 221 224 227 225 219 212 211 211 205 204 203 199 196 197 206 210 209 212 208 199 194 181 184 197 192 178 178 173 175 188 204 204 197 199 200 190 180 170 157 138 117 122 129 129 132 129 121 100 76 83 102 104 98 94 94 97 98 91
261 262 263 263 259 255 253 253 252 250 251 247 240 237 234 231 229 226 221 218 220 222 221 221 221 222 221 216 219 226 228 225 214 209 211 206 205 205 203 201 198 207 211 204 204 198 188 188 178 174 179 179 175 172 168 167 167 182 200 202 206 208 205 198 183 167 155 143 133 125 126 132 136 139 127 91 98 106 99 93 97 100 98 92 84
261 263 263 263 259 256 253 254 252 249 251 250 244 241 238 233 228 227 225 220 222 224 222 221 220 221 223 216 216 220 221 222 216 211 212 211 208 206 209 208 199 207 210 196 195 193 186 189 179 169 171 171 168 171 171 165 163 180 195 197 204 210 205 193 186 175 161 154 144 127 122 127 136 144 137 115 111 108 97 97 105 107 98 86 78
259 261 261 259 256 254 252 251 251 248 249 250 248 245 239 233 226 225 227 224 221 223 223 224 222 218 216 216 217 219 220 217 212 211 211 212 210 206 210 208 195 200 205 194 196 198 191 188 177 171 175 174 168 171 176 178 188 206 199 187 190 197 192 185 183 173 161 159 152 136 128 130 135 141 137 124 115 109 104 104 106 104 93 83 79
263 260 257 256 251 250 251 248 246 245 245 247 249 247 240 233 227 224 226 226 224 224 225 226 226 221 218 217 213 219 224 211 201 207 208 208 209 209 213 208 194 197 199 193 199 202 194 189 182 177 179 178 178 179 184 191 187 181 198 192 178 177 182 181 174 163 159 162 154 143 138 137 139 142 139 131 122 114 109 104 100 96 89 87 85
270 263 253 252 251 250 249 245 242 244 245 245 244 244 238 231 227 224 222 223 222 222 227 229 229 225 221 220 215 216 219 204 193 199 203 206 209 210 214 211 200 197 195 192 197 199 192 189 186 182 179 181 189 187 185 191 179 166 185 193 171 159 166 166 160 158 160 162 156 147 146 146 144 142 140 138 130 120 111 103 100 96 94 95 94
268 266 256 252 253 251 246 242 242 242 241 242 238 234 233 229 224 223 224 223 220 220 226 227 226 224 222 224 225 222 212 202 198 194 194 202 208 208 209 213 207 195 192 194 194 196 193 188 185 185 184 186 192 183 181 194 185 175 184 185 167 151 152 154 155 160 163 163 158 150 150 153 148 141 138 138 129 120 113 108 105 103 103 103 103
260 263 261 254 251 248 242 240 240 237 237 240 234 226 227 227 224 223 222 220 217 219 225 222 219 223 225 228 232 232 224 214 210 206 201 198 202 205 207 212 210 196 191 194 195 202 202 192 184 186 190 191 188 174 176 190 185 182 184 177 168 158 157 159 160 167 168 163 158 152 155 156 148 140 134 131 126 121 117 113 111 110 109 108 107
250 254 259 255 246 245 247 243 235 233 237 236 227 223 223 220 221 221 215 211 210 212 220 222 221 225 228 230 232 232 229 221 211 213 213 202 195 200 201 203 207 201 195 192 194 203 205 197 189 189 196 195 186 177 175 179 183 189 183 172 170 168 168 167 165 169 169 163 159 159 161 154 142 135 130 128 126 123 120 118 116 114 112 110 108
247 247 254 255 245 242 248 242 230 228 232 225 214 213 210 207 213 217 212 210 211 210 215 221 225 228 229 227 229 230 224 218 211 212 217 208 196 197 200 200 204 203 198 193 194 198 200 200 196 194 198 193 183 184 179 176 182 189 184 174 173 172 170 169 167 169 167 162 164 165 160 149 138 132 131 132 130 127 124 121 118 116 114 112 109
255 246 247 250 245 241 239 229 223 226 224 216 211 208 205 205 210 212 209 211 216 216 218 221 225 232 234 231 233 234 225 217 212 209 213 208 200 199 200 201 203 202 199 195 194 195 197 203 200 199 203 190 178 185 185 185 188 188 183 177 177 176 174 172 169 168 166 165 169 168 159 148 141 139 140 139 135 132 128 124 121 120 118 115 112
252 248 244 243 242 240 236 224 217 220 218 212 210 208 210 215 213 209 209 215 223 225 224 227 229 233 236 234 236 237 230 224 219 212 210 206 205 203 196 196 199 197 196 192 192 194 197 203 198 200 203 190 184 192 188 190 194 188 182 181 181 181 179 176 172 170 169 169 171 168 160 153 150 149 148 146 141 138 134 128 127 126 124 122 119
246 249 244 239 238 236 232 223 216 216 216 212 210 207 210 217 217 213 213 216 224 228 229 232 234 234 235 234 237 235 230 230 227 223 216 207 207 207 194 193 196 193 189 189 191 192 197 203 197 196 199 189 197 201 187 187 194 189 184 183 182 183 181 178 176 173 173 173 172 169 164 160 159 157 155 151 147 143 139 135 134 133 131 128 124
247 248 244 238 238 235 226 219 216 214 214 214 213 209 208 212 214 216 217 218 223 229 232 235 237 238 237 236 240 237 231 231 228 223 219 211 207 203 191 192 196 191 186 188 192 192 195 200 196 194 196 195 204 201 185 186 194 191 187 184 183 184 182 180 179 178 178 176 173 171 169 168 166 164 160 155 151 149 145 141 140 139 137 131 123
247 246 244 239 238 235 226 218 215 211 213 217 216 213 212 211 211 217 221 220 223 231 237 238 239 241 240 238 241 239 230 226 223 220 219 214 206 198 193 194 194 190 186 188 193 195 194 195 195 195 195 197 203 198 188 191 196 193 189 186 186 186 185 183 184 183 181 180 177 174 174 174 173 169 164 159 157 154 149 145 144 144 140 132 124
246 241 237 236 236 233 226 217 211 208 212 217 218 216 217 217 217 220 223 223 227 233 237 238 238 239 238 238 239 238 232 224 220 222 222 215 208 204 202 198 193 189 186 188 194 196 192 190 191 193 194 197 199 198 196 196 198 197 192 188 188 189 188 187 187 186 184 183 180 178 177 177 178 173 167 164 163 158 152 148 148 149 145 135 126
244 242 234 232 232 227 222 216 210 209 212 215 216 216 217 220 220 221 223 228 231 231 231 235 239 239 239 240 238 234 232 225 222 226 224 215 210 208 204 203 200 192 189 194 197 194 191 188 189 192 194 198 202 204 201 197 199 200 195 192 192 190 189 190 190 188 186 185 185 183 179 179 180 175 168 167 167 162 156 154 155 155 154 146 135
239 244 236 232 230 224 221 217 211 212 213 212 213 215 219 222 221 223 226 231 233 231 233 239 242 240 241 244 241 233 228 225 225 228 225 216 211 207 203 206 208 201 197 198 195 190 189 190 192 193 191 195 206 208 199 195 201 202 196 195 196 193 190 190 191 189 187 189 190 185 180 180 181 178 173 172 172 169 164 163 165 166 166 164 159
234 241 238 233 229 223 221 217 212 212 212 212 212 214 219 221 224 229 231 231 232 235 239 242 241 238 238 240 238 233 229 229 228 229 228 221 215 211 208 209 211 209 207 201 192 189 191 192 193 192 190 192 201 205 198 197 204 201 197 198 198 196 192 190 191 191 190 192 192 189 183 182 184 181 177 179 180 178 176 176 176 178 181 184 189
234 237 236 232 228 223 219 213 209 210 211 212 214 214 216 219 225 232 233 230 231 234 236 238 239 236 233 234 235 233 230 233 234 233 230 223 215 212 213 214 213 215 219 214 195 185 185 191 192 190 190 190 193 199 198 200 205 202 199 202 201 197 195 194 194 193 194 195 194 191 189 187 190 188 186 188 190 190 189 188 189 191 197 206 216
236 235 234 230 226 223 218 211 207 209 210 210 213 213 215 219 224 229 230 228 227 230 231 233 236 234 229 231 236 234 228 228 229 227 226 223 216 212 216 216 214 215 219 215 199 183 180 188 191 189 189 189 190 194 196 201 207 204 201 206 205 201 198 198 198 198 198 198 197 196 198 197 196 196 196 197 199 201 201 201 203 207 214 224 235
235 234 231 227 223 220 216 211 208 207 208 209 213 215 217 220 224 226 226 226 225 227 229 230 233 232 228 229 233 232 229 227 222 216 220 222 217 214 215 214 214 217 215 211 208 199 191 191 189 188 191 192 192 192 195 202 208 206 205 208 208 204 203 201 202 204 202 200 202 203 204 207 205 206 207 208 210 212 213 215 217 222 230 239 249
237 233 231 227 222 219 214 212 210 207 205 208 213 217 219 220 222 224 225 225 226 226 226 228 230 230 228 227 227 228 230 229 221 216 219 222 220 218 214 212 215 215 212 212 212 203 195 194 190 189 193 195 194 195 196 201 206 206 206 210 211 209 207 204 204 209 208 204 206 208 209 213 213 213 215 217 220 222 224 228 231 236 243 250 257
236 231 234 231 223 217 212 211 209 205 206 211 215 217 218 220 222 225 226 225 226 226 226 227 228 228 229 228 225 226 229 229 222 218 220 220 220 219 212 211 215 213 208 207 201 193 192 194 191 192 196 196 194 195 197 199 204 205 203 208 212 211 211 209 206 211 212 208 210 213 215 217 218 219 223 224 228 232 234 238 242 247 253 259 264
235 227 236 234 225 217 212 211 208 206 210 215 218 218 218 221 223 223 224 225 226 227 226 225 225 224 227 231 229 225 226 228 222 217 217 218 219 219 215 215 218 217 214 207 197 193 199 196 190 191 192 194 196 197 197 197 201 204 202 206 211 211 213 214 212 216 215 211 214 217 218 221 223 225 228 230 234 238 242 246 250 256 261 266 270
233 229 239 236 228 218 214 214 209 207 210 214 219 220 217 219 219 219 221 224 226 226 224 224 224 222 223 230 232 227 224 225 221 215 214 215 218 219 220 221 217 216 218 211 200 199 207 200 190 190 189 189 192 196 199 198 199 202 202 205 208 209 212 215 216 221 221 216 218 221 221 223 226 229 232 236 238 241 245 251 256 261 265 269 272
224 230 243 240 233 222 215 215 208 204 206 207 214 219 216 216 217 217 221 223 224 226 224 224 225 223 222 225 228 226 224 225 222 217 215 215 217 219 221 222 217 216 220 212 201 201 207 204 195 193 194 193 192 195 200 200 201 204 203 205 208 209 215 220 219 223 228 226 225 225 224 225 229 232 233 235 239 243 248 254 258 262 265 268 270
222 226 243 246 242 233 226 223 214 209 207 202 209 217 217 219 219 218 222 225 226 225 222 222 224 223 221 223 223 223 223 224 223 219 217 217 219 221 224 223 218 219 223 214 204 202 205 207 204 198 196 197 197 198 198 199 203 207 206 206 209 212 217 224 225 225 230 232 231 230 229 228 229 231 235 239 243 246 250 255 259 262 264 266 267
262 249 265 269 258 250 246 235 222 219 210 198 205 216 219 223 224 220 220 223 225 226 223 222 222 220 221 224 225 224 223 224 224 222 220 220 221 224 228 229 225 224 224 215 208 204 203 204 203 202 202 201 201 200 200 204 206 208 209 211 213 214 215 221 226 226 226 229 231 230 229 232 234 238 246 250 252 253 254 258 260 261 264 266 269
284 270 273 279 275 269 262 247 232 225 212 203 210 217 218 224 228 225 224 222 221 224 226 225 223 222 224 227 231 231 229 227 227 226 226 227 227 229 233 235 232 227 223 220 214 211 210 208 204 204 205 205 206 205 207 212 213 212 214 215 216 215 213 214 217 222 224 222 220 221 224 235 242 245 248 251 256 261 262 260 261 263 267 270 272
274 270 272 275 281 282 268 252 244 236 223 217 220 218 217 222 225 227 230 228 224 225 227 225 225 225 226 229 232 234 233 232 233 232 231 232 230 228 230 233 231 225 224 226 223 219 218 217 217 215 209 209 213 213 212 215 217 217 216 217 219 217 214 214 212 218 224 220 218 221 220 231 240 241 241 241 242 250 255 259 265 270 273 274 274
263 264 265 262 267 272 265 252 250 247 236 225 216 214 219 224 225 225 229 230 229 232 232 230 230 229 228 228 229 232 234 235 235 234 233 233 231 227 227 228 226 224 224 225 226 224 218 217 219 220 217 216 217 217 218 217 218 223 222 218 219 216 214 219 218 219 226 224 223 225 221 233 244 244 238 233 227 237 251 261 269 274 275 277 279
281 266 257 253 256 263 265 260 256 258 253 235 217 217 225 227 226 223 223 227 231 234 236 236 235 233 231 228 226 228 232 232 232 232 231 232 230 227 227 227 226 227 228 229 232 233 225 217 217 217 217 219 220 219 220 217 218 228 227 220 221 219 216 221 220 220 229 230 226 226 224 236 249 246 233 231 233 245 260 270 274 277 279 281 284
312 284 266 259 257 258 262 263 261 265 265 245 226 227 231 229 226 221 221 228 233 234 235 236 236 235 235 231 225 226 230 228 225 226 229 232 230 226 225 227 228 229 232 233 236 237 232 223 218 216 215 219 220 216 212 214 220 230 229 221 220 217 214 217 218 222 232 235 233 233 229 233 245 243 221 221 238 256 278 285 282 282 284 284 286
353 326 298 284 275 265 261 262 262 265 267 251 233 232 234 230 224 219 222 230 234 235 234 231 230 230 229 226 224 226 231 229 224 224 228 231 229 226 227 229 231 233 235 237 239 241 239 232 226 224 225 224 221 215 217 226 233 238 233 222 216 218 220 223 226 230 236 240 241 240 229 218 234 236 225 242 257 265 278 284 284 285 286 287 289
20 9 346 321 303 285 273 266 258 256 260 257 244 235 232 230 226 222 225 233 238 239 234 227 222 219 215 214 215 220 227 230 226 224 227 229 229 229 230 230 234 237 239 242 244 246 247 244 241 239 236 231 226 225 232 239 240 242 242 232 224 223 222 220 223 230 237 241 242 238 226 216 232 244 251 266 273 274 276 279 283 286 288 290 291
24 20 14 4 346 321 300 281 262 255 256 254 246 236 230 230 229 228 230 236 240 237 231 225 220 216 215 213 209 212 222 228 224 219 222 226 227 229 231 233 237 241 244 245 246 247 249 250 249 246 239 232 229 229 234 240 241 240 237 228 222 218 213 207 199 202 225 235 234 235 236 235 249 260 264 265 272 278 279 272 274 282 288 291 291
23 21 19 15 8 359 350 331 295 275 265 254 244 238 233 232 234 236 236 238 241 237 232 231 229 227 225 221 215 216 221 221 214 212 215 220 226 231 233 234 238 241 241 241 242 245 247 245 243 238 233 229 228 229 232 238 239 228 209 201 201 195 189 189 182 184 223 241 241 249 254 249 258 271 272 266 272 278 271 255 264 282 294 297 297
22 22 22 21 17 12 8 1 343 317 294 270 251 242 237 234 235 236 232 231 237 238 236 234 232 231 229 223 219 220 220 212 204 205 208 211 219 229 228 222 223 223 221 219 221 228 232 227 220 218 217 219 224 230 233 233 223 206 194 195 201 199 195 194 196 211 243 252 254 259 250 238 248 260 266 271 277 267 256 262 279 292 300 300 301